Flag for U.S.A. Weather past 2 weeks in Salt Lake City, Utah, U.S.A.

Now
87 °F

Passing clouds.


Feels Like: 84 °F
Forecast: 65 / 85 °F
Wind: 12 mph from North

Location: Salt Lake City International Airport

Current Time: Sep 2, 2014 at 6:34:18 PM

Latest Report: Sep 2, 2014 at 5:53 PM


Visibility: 10 mi

Pressure: 29.69 "Hg

Humidity: 20%

Dew point: 41 °F

Location of Salt Lake CityLocation

Historic Weather in Salt Lake City — Graph

°F

Salt Lake City temperature yesterday

Maximum temperature yesterday: 80 °F (at 4:53 PM)
Minimum temperature yesterday: 55 °F (at 5:53 AM)
Average temperature yesterday: 67 °F

Past Weeks' High & Low Weather Summary

 TemperatureHumidityPressure
High93 °F (Aug 18, 4:53 PM)93% (Aug 20, 4:01 AM)30.13 "Hg (Aug 20, 4:01 AM)
Low52 °F (Aug 24, 6:53 AM)11% (Aug 18, 5:53 PM)29.62 "Hg (Aug 30, 7:53 PM)
Average70 °F47%29.88 "Hg
* Reported Aug 18 4:53 PM — Sep 2 4:53 PM, Salt Lake City, Weather by CustomWeather, © 2014

Note: Actual official high and low records may vary slightly from our data, if they occured in-between our weather recording intervals... More about our weather records

Advertising

Salt Lake City weather history for previous 24 hours

 ConditionsComfort  
Time TempWeatherWind HumidityBarometerVisibility
4:53 PM
Sep 2
88 °FPassing clouds.10 mph19%29.72 "Hg10 mi
3:53 PM88 °FPassing clouds.10 mph18%29.74 "Hg10 mi
2:53 PM87 °FPassing clouds.6 mph19%29.77 "Hg10 mi
1:53 PM87 °FPassing clouds.8 mph17%29.79 "Hg10 mi
12:53 PM83 °FSunny.5 mph21%29.82 "Hg10 mi
11:53 AM78 °FSunny.3 mph27%29.85 "Hg10 mi
10:53 AM75 °FSunny.No wind31%29.87 "Hg10 mi
9:53 AM70 °FSunny.7 mph34%29.90 "Hg10 mi
8:53 AM66 °FSunny.9 mph45%29.90 "Hg10 mi
7:53 AM61 °FClear.8 mph50%29.91 "Hg10 mi
6:53 AM58 °FClear.No wind51%29.89 "Hg10 mi
5:53 AM58 °FClear.3 mph54%29.88 "Hg10 mi
4:53 AM57 °FClear.7 mph55%29.88 "Hg10 mi
3:53 AM61 °FClear.9 mph42%29.87 "Hg10 mi
2:53 AM60 °FClear.7 mph42%29.88 "Hg10 mi
1:53 AM61 °FClear.8 mph42%29.90 "Hg10 mi
12:53 AM63 °FClear.9 mph37%29.90 "Hg10 mi
11:53 PM
Sep 1
64 °FClear.9 mph33%29.91 "Hg10 mi
10:53 PM66 °FClear.9 mph29%29.91 "Hg10 mi
9:53 PM66 °FClear.6 mph33%29.93 "Hg10 mi
8:53 PM71 °FSunny.No wind25%29.92 "Hg10 mi
7:53 PM73 °FSunny.7 mph23%29.90 "Hg10 mi
6:53 PM77 °FSunny.9 mph19%29.91 "Hg10 mi
Weather by CustomWeather, © 2014

See weather overviewHow to use our weather pages